Time,TemperatureF,DewpointF,PressureIn,WindDirection,WindDirectionDegrees,WindSpeedMPH,WindSpeedGustMPH,Humidity,HourlyPrecipIn,Conditions,Clouds,dailyrainin,SoftwareType,DateUTC
2013-11-29 00:00:00,28.7,15.4,31.13,South,180,1.3,2.0,57,0.00,,,0.00,WUHU216HW,2013-11-29 05:00:00,
2013-11-29 00:01:00,28.7,15.4,31.13,South,180,1.3,2.0,57,0.00,,,0.00,WUHU216HW,2013-11-29 05:01:00,
2013-11-29 00:06:00,28.5,15.2,31.13,South,180,0.0,2.0,57,0.00,,,0.00,WUHU216HW,2013-11-29 05:06:00,
2013-11-29 00:11:00,28.5,15.2,31.13,SSW,203,2.0,2.4,57,0.00,,,0.00,WUHU216HW,2013-11-29 05:11:00,
2013-11-29 00:16:00,28.5,15.6,31.13,South,180,0.0,2.4,58,0.00,,,0.00,WUHU216HW,2013-11-29 05:16:00,
2013-11-29 00:21:00,28.5,15.6,31.13,SW,225,0.0,2.0,58,0.00,,,0.00,WUHU216HW,2013-11-29 05:21:00,
2013-11-29 00:26:00,28.5,15.6,31.13,SSW,203,0.0,2.0,58,0.00,,,0.00,WUHU216HW,2013-11-29 05:26:00,
2013-11-29 00:31:00,28.5,15.6,31.13,South,180,1.1,2.4,58,0.00,,,0.00,WUHU216HW,2013-11-29 05:31:00,
2013-11-29 00:36:00,28.5,15.6,31.13,SSW,203,2.0,2.4,58,0.00,,,0.00,WUHU216HW,2013-11-29 05:36:00,
2013-11-29 00:41:00,28.5,15.6,31.13,South,180,4.2,4.2,58,0.00,,,0.00,WUHU216HW,2013-11-29 05:41:00,
2013-11-29 00:46:00,28.5,15.6,31.13,SSW,203,0.0,4.2,58,0.00,,,0.00,WUHU216HW,2013-11-29 05:46:00,
2013-11-29 00:51:00,28.5,15.6,31.13,South,180,0.0,2.6,58,0.00,,,0.00,WUHU216HW,2013-11-29 05:51:00,
2013-11-29 00:56:00,28.5,15.6,31.13,SSW,203,2.4,2.6,58,0.00,,,0.00,WUHU216HW,2013-11-29 05:56:00,
2013-11-29 01:01:00,28.5,15.6,31.13,SSW,203,1.3,2.4,58,0.00,,,0.00,WUHU216HW,2013-11-29 06:01:00,
2013-11-29 01:10:00,28.5,15.6,31.13,SSW,203,1.3,1.3,58,0.00,,,0.00,WUHU216HW,2013-11-29 06:10:00,
2013-11-29 01:15:00,28.5,15.6,31.13,South,180,0.0,1.3,58,0.00,,,0.00,WUHU216HW,2013-11-29 06:15:00,
2013-11-29 01:20:00,28.5,15.6,31.13,SSW,203,0.0,0.6,58,0.00,,,0.00,WUHU216HW,2013-11-29 06:20:00,
2013-11-29 01:25:00,28.5,15.6,31.13,SSW,203,0.0,2.0,58,0.00,,,0.00,WUHU216HW,2013-11-29 06:25:00,
2013-11-29 01:30:00,28.5,16.0,31.14,SSW,203,0.0,2.0,59,0.00,,,0.00,WUHU216HW,2013-11-29 06:30:00,
2013-11-29 01:35:00,28.5,16.0,31.13,SSW,203,0.0,1.7,59,0.00,,,0.00,WUHU216HW,2013-11-29 06:35:00,
2013-11-29 01:40:00,28.5,15.9,31.14,SSW,203,0.0,3.1,59,0.00,,,0.00,WUHU216HW,2013-11-29 06:40:00,
2013-11-29 01:45:00,28.5,16.0,31.13,SSW,203,0.0,3.1,59,0.00,,,0.00,WUHU216HW,2013-11-29 06:45:00,
2013-11-29 01:50:00,28.5,16.0,31.13,SW,225,0.0,1.3,59,0.00,,,0.00,WUHU216HW,2013-11-29 06:50:00,
2013-11-29 01:55:00,28.5,16.0,31.13,SW,225,0.0,1.3,59,0.00,,,0.00,WUHU216HW,2013-11-29 06:55:00,
2013-11-29 02:00:00,28.5,16.0,31.13,South,180,0.0,0.0,59,0.00,,,0.00,WUHU216HW,2013-11-29 07:00:00,
2013-11-29 02:10:00,28.5,16.0,31.14,SSW,203,0.0,3.3,59,0.00,,,0.00,WUHU216HW,2013-11-29 07:10:00,
2013-11-29 02:15:00,28.5,16.0,31.15,SSW,203,0.0,0.0,59,0.00,,,0.00,WUHU216HW,2013-11-29 07:15:00,
2013-11-29 02:20:00,28.5,16.2,31.16,SSW,203,0.0,0.0,59,0.00,,,0.00,WUHU216HW,2013-11-29 07:20:00,
2013-11-29 02:25:00,28.5,16.0,31.15,SSW,203,0.0,0.0,59,0.00,,,0.00,WUHU216HW,2013-11-29 07:25:00,
2013-11-29 02:30:00,28.5,16.0,31.16,SW,225,0.0,0.0,59,0.00,,,0.00,WUHU216HW,2013-11-29 07:30:00,
2013-11-29 02:35:00,28.5,15.6,31.16,SSW,203,0.0,1.1,58,0.00,,,0.00,WUHU216HW,2013-11-29 07:35:00,
2013-11-29 02:40:00,28.5,15.6,31.16,SSW,203,0.0,1.1,58,0.00,,,0.00,WUHU216HW,2013-11-29 07:40:00,
2013-11-29 02:45:00,28.5,15.6,31.16,South,180,0.0,0.0,58,0.00,,,0.00,WUHU216HW,2013-11-29 07:45:00,
2013-11-29 02:50:00,28.5,15.6,31.16,South,180,0.0,0.0,58,0.00,,,0.00,WUHU216HW,2013-11-29 07:50:00,
2013-11-29 02:55:00,28.5,15.6,31.16,South,180,0.0,0.0,58,0.00,,,0.00,WUHU216HW,2013-11-29 07:55:00,
2013-11-29 03:00:00,28.5,15.6,31.16,SSW,203,0.0,0.0,58,0.00,,,0.00,WUHU216HW,2013-11-29 08:00:00,
2013-11-29 03:05:00,28.5,15.6,31.16,South,180,0.0,0.0,58,0.00,,,0.00,WUHU216HW,2013-11-29 08:05:00,
2013-11-29 03:10:00,28.5,15.6,31.16,South,180,1.5,1.5,58,0.00,,,0.00,WUHU216HW,2013-11-29 08:10:00,
2013-11-29 03:15:00,28.4,15.5,31.16,SSW,203,1.7,1.7,58,0.00,,,0.00,WUHU216HW,2013-11-29 08:15:00,
2013-11-29 03:20:00,28.4,15.5,31.16,SSW,203,0.0,1.7,58,0.00,,,0.00,WUHU216HW,2013-11-29 08:20:00,
2013-11-29 03:25:00,28.4,15.5,31.16,South,180,0.0,0.0,58,0.00,,,0.00,WUHU216HW,2013-11-29 08:25:00,
2013-11-29 03:30:00,28.4,15.5,31.17,SSW,203,0.0,1.3,58,0.00,,,0.00,WUHU216HW,2013-11-29 08:30:00,
2013-11-29 03:35:00,28.2,15.3,31.17,SSW,203,0.0,1.3,58,0.00,,,0.00,WUHU216HW,2013-11-29 08:35:00,
2013-11-29 03:40:00,28.2,15.3,31.17,South,180,0.0,0.0,58,0.00,,,0.00,WUHU216HW,2013-11-29 08:40:00,
2013-11-29 03:45:00,28.2,15.3,31.17,SSW,203,0.0,0.0,58,0.00,,,0.00,WUHU216HW,2013-11-29 08:45:00,
2013-11-29 03:50:00,28.0,15.1,31.17,SSW,203,0.0,0.0,58,0.00,,,0.00,WUHU216HW,2013-11-29 08:50:00,
2013-11-29 03:55:00,28.2,15.3,31.17,SSW,203,0.0,0.0,58,0.00,,,0.00,WUHU216HW,2013-11-29 08:55:00,
2013-11-29 04:00:00,28.0,15.1,31.17,SSW,203,0.0,0.0,58,0.00,,,0.00,WUHU216HW,2013-11-29 09:00:00,
2013-11-29 04:05:00,28.0,15.1,31.17,South,180,0.0,0.0,58,0.00,,,0.00,WUHU216HW,2013-11-29 09:05:00,
2013-11-29 04:10:00,28.0,15.1,31.17,SSW,203,0.0,0.0,58,0.00,,,0.00,WUHU216HW,2013-11-29 09:10:00,
2013-11-29 04:15:00,28.0,15.1,31.17,SSW,203,0.0,0.0,58,0.00,,,0.00,WUHU216HW,2013-11-29 09:15:00,
2013-11-29 04:20:00,28.0,15.1,31.18,SSW,203,0.0,0.0,58,0.00,,,0.00,WUHU216HW,2013-11-29 09:20:00,
2013-11-29 04:25:00,27.8,14.9,31.17,South,180,0.0,1.1,58,0.00,,,0.00,WUHU216HW,2013-11-29 09:25:00,
2013-11-29 04:30:00,27.6,14.7,31.18,SSW,203,0.0,1.1,58,0.00,,,0.00,WUHU216HW,2013-11-29 09:30:00,
2013-11-29 04:35:00,27.6,14.7,31.18,SW,225,0.0,0.0,58,0.00,,,0.00,WUHU216HW,2013-11-29 09:35:00,
2013-11-29 04:40:00,27.6,14.7,31.18,SW,225,0.0,0.0,58,0.00,,,0.00,WUHU216HW,2013-11-29 09:40:00,
2013-11-29 04:45:00,27.5,14.7,31.19,SW,225,0.0,0.0,58,0.00,,,0.00,WUHU216HW,2013-11-29 09:45:00,
2013-11-29 04:50:00,27.3,14.4,31.19,SW,225,0.0,0.0,58,0.00,,,0.00,WUHU216HW,2013-11-29 09:50:00,
2013-11-29 04:55:00,27.3,14.4,31.19,SW,225,0.0,0.0,58,0.00,,,0.00,WUHU216HW,2013-11-29 09:55:00,
2013-11-29 05:00:00,27.1,14.2,31.19,SW,225,0.0,0.0,58,0.00,,,0.00,WUHU216HW,2013-11-29 10:00:00,
2013-11-29 05:05:00,26.9,14.0,31.19,SW,225,0.0,0.0,58,0.00,,,0.00,WUHU216HW,2013-11-29 10:05:00,
2013-11-29 05:10:00,26.7,13.8,31.19,SW,225,0.0,0.0,58,0.00,,,0.00,WUHU216HW,2013-11-29 10:10:00,
2013-11-29 05:15:00,26.7,13.8,31.20,SW,225,0.0,0.0,58,0.00,,,0.00,WUHU216HW,2013-11-29 10:15:00,
2013-11-29 05:20:00,26.6,13.7,31.20,SW,225,0.0,0.0,58,0.00,,,0.00,WUHU216HW,2013-11-29 10:20:00,
2013-11-29 05:25:00,26.4,13.5,31.20,SW,225,0.0,0.0,58,0.00,,,0.00,WUHU216HW,2013-11-29 10:25:00,
2013-11-29 05:30:00,26.4,13.5,31.21,SW,225,0.0,0.0,58,0.00,,,0.00,WUHU216HW,2013-11-29 10:30:00,
2013-11-29 05:35:00,26.2,13.3,31.21,SW,225,0.0,0.0,58,0.00,,,0.00,WUHU216HW,2013-11-29 10:35:00,
2013-11-29 05:40:00,26.0,13.2,31.21,SSW,203,0.0,0.0,58,0.00,,,0.00,WUHU216HW,2013-11-29 10:40:00,
2013-11-29 05:45:00,26.0,13.2,31.20,SSW,203,0.0,0.0,58,0.00,,,0.00,WUHU216HW,2013-11-29 10:45:00,
2013-11-29 05:50:00,25.8,13.0,31.20,SSW,203,0.0,0.0,58,0.00,,,0.00,WUHU216HW,2013-11-29 10:50:00,
2013-11-29 05:55:00,25.7,12.9,31.21,SSW,203,0.0,0.0,58,0.00,,,0.00,WUHU216HW,2013-11-29 10:55:00,
2013-11-29 06:00:00,25.7,12.9,31.21,SSW,203,0.0,0.0,58,0.00,,,0.00,WUHU216HW,2013-11-29 11:00:00,
2013-11-29 06:05:00,25.7,12.9,31.21,SSW,203,0.0,0.0,58,0.00,,,0.00,WUHU216HW,2013-11-29 11:05:00,
2013-11-29 06:10:00,25.3,12.5,31.21,SSW,203,0.0,0.0,58,0.00,,,0.00,WUHU216HW,2013-11-29 11:10:00,
2013-11-29 06:15:00,25.1,12.4,31.21,SSW,203,0.0,0.0,58,0.00,,,0.00,WUHU216HW,2013-11-29 11:15:00,
2013-11-29 06:20:00,25.1,12.4,31.22,SSW,203,0.0,0.0,58,0.00,,,0.00,WUHU216HW,2013-11-29 11:20:00,
2013-11-29 06:25:00,24.9,12.6,31.22,SSW,203,0.0,0.0,59,0.00,,,0.00,WUHU216HW,2013-11-29 11:25:00,
2013-11-29 06:30:00,24.9,12.6,31.22,SSW,203,0.0,0.0,59,0.00,,,0.00,WUHU216HW,2013-11-29 11:30:00,
2013-11-29 06:35:00,24.9,12.6,31.22,SSW,203,0.0,0.0,59,0.00,,,0.00,WUHU216HW,2013-11-29 11:35:00,
2013-11-29 06:40:00,24.6,12.5,31.22,SSW,203,0.0,0.0,59,0.00,,,0.00,WUHU216HW,2013-11-29 11:40:00,
2013-11-29 06:45:00,24.8,12.5,31.22,SSW,203,0.0,0.0,59,0.00,,,0.00,WUHU216HW,2013-11-29 11:45:00,
2013-11-29 06:50:00,24.6,12.3,31.23,SSW,203,0.0,0.0,59,0.00,,,0.00,WUHU216HW,2013-11-29 11:50:00,
2013-11-29 06:55:00,24.6,12.3,31.23,SSW,203,0.0,0.0,59,0.00,,,0.00,WUHU216HW,2013-11-29 11:55:00,
2013-11-29 07:00:00,24.2,11.9,31.23,SSW,203,0.0,0.0,59,0.00,,,0.00,WUHU216HW,2013-11-29 12:00:00,
2013-11-29 07:05:00,24.2,11.9,31.23,SSW,203,0.0,0.0,59,0.00,,,0.00,WUHU216HW,2013-11-29 12:05:00,
2013-11-29 07:10:00,24.0,11.7,31.24,SSW,203,0.0,0.0,59,0.00,,,0.00,WUHU216HW,2013-11-29 12:10:00,
2013-11-29 07:15:00,24.0,11.7,31.24,SSW,203,0.0,0.0,59,0.00,,,0.00,WUHU216HW,2013-11-29 12:15:00,
2013-11-29 07:20:00,23.9,11.6,31.25,SSW,203,0.0,0.0,59,0.00,,,0.00,WUHU216HW,2013-11-29 12:20:00,
2013-11-29 07:25:00,23.9,11.6,31.25,SSW,203,0.0,0.0,59,0.00,,,0.00,WUHU216HW,2013-11-29 12:25:00,
2013-11-29 07:30:00,23.7,11.4,31.25,SSW,203,0.0,0.0,59,0.00,,,0.00,WUHU216HW,2013-11-29 12:30:00,
2013-11-29 07:35:00,23.7,11.2,31.25,SSW,203,0.0,0.0,59,0.00,,,0.00,WUHU216HW,2013-11-29 12:35:00,
2013-11-29 07:40:00,23.5,11.6,31.25,SSW,203,0.0,0.0,60,0.00,,,0.00,WUHU216HW,2013-11-29 12:40:00,
2013-11-29 07:45:00,23.3,11.4,31.25,SSW,203,0.0,0.0,60,0.00,,,0.00,WUHU216HW,2013-11-29 12:45:00,
2013-11-29 07:50:00,23.3,11.4,31.26,SSW,203,0.0,0.0,60,0.00,,,0.00,WUHU216HW,2013-11-29 12:50:00,
2013-11-29 07:55:00,23.3,11.4,31.26,SSW,203,0.0,0.0,60,0.00,,,0.00,WUHU216HW,2013-11-29 12:55:00,
2013-11-29 08:00:00,23.3,11.4,31.26,SSW,203,0.0,0.0,60,0.00,,,0.00,WUHU216HW,2013-11-29 13:00:00,
2013-11-29 08:05:00,23.3,11.4,31.26,SSW,203,0.0,0.0,60,0.00,,,0.00,WUHU216HW,2013-11-29 13:05:00,
2013-11-29 08:10:00,23.3,11.4,31.26,SSW,203,0.0,0.0,60,0.00,,,0.00,WUHU216HW,2013-11-29 13:10:00,
2013-11-29 08:15:00,23.3,11.4,31.27,SSW,203,0.0,0.0,60,0.00,,,0.00,WUHU216HW,2013-11-29 13:15:00,
2013-11-29 08:20:00,23.1,11.6,31.27,SSW,203,0.0,0.0,61,0.00,,,0.00,WUHU216HW,2013-11-29 13:20:00,
2013-11-29 08:25:00,23.3,11.8,31.27,SSW,203,0.0,0.0,61,0.00,,,0.00,WUHU216HW,2013-11-29 13:25:00,
2013-11-29 08:30:00,23.5,12.0,31.28,SSW,203,0.0,0.0,61,0.00,,,0.00,WUHU216HW,2013-11-29 13:30:00,
2013-11-29 08:35:00,23.5,12.0,31.28,SSW,203,0.0,0.0,61,0.00,,,0.00,WUHU216HW,2013-11-29 13:35:00,
2013-11-29 08:40:00,23.7,12.1,31.28,SSW,203,0.0,0.0,61,0.00,,,0.00,WUHU216HW,2013-11-29 13:40:00,
2013-11-29 08:45:00,23.9,12.3,31.28,SSW,203,0.0,0.0,61,0.00,,,0.00,WUHU216HW,2013-11-29 13:45:00,
2013-11-29 08:50:00,24.0,12.5,31.29,SSW,203,0.0,0.0,61,0.00,,,0.00,WUHU216HW,2013-11-29 13:50:00,
2013-11-29 08:55:00,24.2,12.7,31.29,SSW,203,0.0,0.0,61,0.00,,,0.00,WUHU216HW,2013-11-29 13:55:00,
2013-11-29 09:00:00,24.4,13.2,31.28,SW,225,0.0,0.0,62,0.00,,,0.00,WUHU216HW,2013-11-29 14:00:00,
2013-11-29 09:05:00,24.6,13.4,31.29,SW,225,0.0,0.0,62,0.00,,,0.00,WUHU216HW,2013-11-29 14:05:00,
2013-11-29 09:10:00,24.9,13.7,31.29,West,270,0.0,0.0,62,0.00,,,0.00,WUHU216HW,2013-11-29 14:10:00,
2013-11-29 09:15:00,25.1,13.9,31.29,West,270,0.0,0.0,62,0.00,,,0.00,WUHU216HW,2013-11-29 14:15:00,
2013-11-29 09:20:00,25.3,14.2,31.29,West,270,0.0,0.0,62,0.00,,,0.00,WUHU216HW,2013-11-29 14:20:00,
2013-11-29 09:25:00,25.7,14.4,31.29,West,270,0.0,0.0,62,0.00,,,0.00,WUHU216HW,2013-11-29 14:25:00,
2013-11-29 09:30:00,26.0,14.7,31.29,West,270,0.0,0.0,62,0.00,,,0.00,WUHU216HW,2013-11-29 14:30:00,
2013-11-29 09:35:00,26.7,15.4,31.29,WNW,293,0.0,0.0,62,0.00,,,0.00,WUHU216HW,2013-11-29 14:35:00,
2013-11-29 09:40:00,27.1,15.8,31.29,West,270,0.0,0.0,62,0.00,,,0.00,WUHU216HW,2013-11-29 14:40:00,
2013-11-29 09:45:00,27.3,15.9,31.29,WNW,293,0.0,0.0,62,0.00,,,0.00,WUHU216HW,2013-11-29 14:45:00,
2013-11-29 09:50:00,27.6,16.1,31.29,WNW,293,0.0,0.0,61,0.00,,,0.00,WUHU216HW,2013-11-29 14:50:00,
2013-11-29 09:55:00,28.2,16.5,31.30,WSW,248,0.0,0.0,61,0.00,,,0.00,WUHU216HW,2013-11-29 14:55:00,
2013-11-29 10:00:00,28.7,17.0,31.30,WNW,293,0.0,0.0,61,0.00,,,0.00,WUHU216HW,2013-11-29 15:00:00,
2013-11-29 10:05:00,28.9,16.8,31.29,WNW,293,0.0,0.0,60,0.00,,,0.00,WUHU216HW,2013-11-29 15:05:00,
2013-11-29 10:10:00,29.3,17.1,31.30,West,270,0.0,0.0,60,0.00,,,0.00,WUHU216HW,2013-11-29 15:10:00,
2013-11-29 10:15:00,29.8,17.4,31.30,West,270,0.0,0.0,60,0.00,,,0.00,WUHU216HW,2013-11-29 15:15:00,
2013-11-29 10:20:00,30.3,18.1,31.30,WNW,293,0.0,0.0,60,0.00,,,0.00,WUHU216HW,2013-11-29 15:20:00,
2013-11-29 10:25:00,30.9,18.6,31.31,WNW,293,0.0,1.3,60,0.00,,,0.00,WUHU216HW,2013-11-29 15:25:00,
2013-11-29 10:30:00,31.4,19.2,31.31,NW,315,0.0,1.3,60,0.00,,,0.00,WUHU216HW,2013-11-29 15:30:00,
2013-11-29 10:35:00,32.3,20.0,31.31,NW,315,0.0,0.0,60,0.00,,,0.00,WUHU216HW,2013-11-29 15:35:00,
2013-11-29 10:40:00,32.9,20.7,31.31,SE,135,0.0,0.0,60,0.00,,,0.00,WUHU216HW,2013-11-29 15:40:00,
2013-11-29 10:45:00,33.6,20.7,31.31,ENE,68,0.0,0.0,59,0.00,,,0.00,WUHU216HW,2013-11-29 15:45:00,
2013-11-29 10:50:00,34.5,21.4,31.31,ESE,113,0.0,1.1,59,0.00,,,0.00,WUHU216HW,2013-11-29 15:50:00,
2013-11-29 10:55:00,35.0,22.2,31.30,ESE,113,0.0,1.1,59,0.00,,,0.00,WUHU216HW,2013-11-29 15:55:00,
2013-11-29 11:00:00,35.7,22.4,31.30,NE,45,0.0,0.0,58,0.00,,,0.00,WUHU216HW,2013-11-29 16:00:00,
2013-11-29 11:05:00,35.9,21.7,31.30,ENE,68,0.0,0.0,56,0.00,,,0.00,WUHU216HW,2013-11-29 16:05:00,
2013-11-29 11:10:00,35.9,21.3,31.30,WNW,293,0.0,0.0,55,0.00,,,0.00,WUHU216HW,2013-11-29 16:10:00,
2013-11-29 11:15:00,36.1,21.0,31.30,West,270,0.0,0.0,54,0.00,,,0.00,WUHU216HW,2013-11-29 16:15:00,
2013-11-29 11:20:00,36.1,20.6,31.30,West,270,0.0,0.0,53,0.00,,,0.00,WUHU216HW,2013-11-29 16:20:00,
2013-11-29 11:25:00,36.3,20.8,31.30,WNW,293,0.0,0.0,53,0.00,,,0.00,WUHU216HW,2013-11-29 16:25:00,
2013-11-29 11:30:00,36.5,20.5,31.30,SW,225,0.0,0.0,52,0.00,,,0.00,WUHU216HW,2013-11-29 16:30:00,
2013-11-29 11:35:00,36.6,20.5,31.30,SSW,203,0.0,0.0,52,0.00,,,0.00,WUHU216HW,2013-11-29 16:35:00,
2013-11-29 11:40:00,36.8,20.4,31.30,WNW,293,0.0,0.0,51,0.00,,,0.00,WUHU216HW,2013-11-29 16:40:00,
2013-11-29 11:45:00,37.0,20.5,31.30,SSW,203,0.0,0.0,51,0.00,,,0.00,WUHU216HW,2013-11-29 16:45:00,
2013-11-29 11:50:00,37.2,20.7,31.30,SW,225,0.0,0.0,51,0.00,,,0.00,WUHU216HW,2013-11-29 16:50:00,
2013-11-29 11:55:00,37.4,20.4,31.30,NW,315,0.0,2.2,50,0.00,,,0.00,WUHU216HW,2013-11-29 16:55:00,
2013-11-29 12:00:00,37.5,20.6,31.30,SW,225,2.4,2.4,50,0.00,,,0.00,WUHU216HW,2013-11-29 17:00:00,
2013-11-29 12:05:00,37.5,20.1,31.29,WNW,293,0.6,2.4,49,0.00,,,0.00,WUHU216HW,2013-11-29 17:05:00,
2013-11-29 12:10:00,37.5,20.1,31.29,SSW,203,0.0,2.4,49,0.00,,,0.00,WUHU216HW,2013-11-29 17:10:00,
2013-11-29 12:15:00,37.5,20.1,31.30,South,180,1.3,2.4,49,0.00,,,0.00,WUHU216HW,2013-11-29 17:15:00,
2013-11-29 12:20:00,37.7,19.7,31.29,West,270,0.0,1.3,48,0.00,,,0.00,WUHU216HW,2013-11-29 17:20:00,
2013-11-29 12:25:00,38.3,20.7,31.30,South,180,0.0,2.6,49,0.00,,,0.00,WUHU216HW,2013-11-29 17:25:00,
2013-11-29 12:30:00,38.6,20.5,31.30,SSE,158,2.0,2.6,48,0.00,,,0.00,WUHU216HW,2013-11-29 17:30:00,
2013-11-29 12:35:00,39.3,21.2,31.30,WSW,248,2.6,2.6,48,0.00,,,0.00,WUHU216HW,2013-11-29 17:35:00,
2013-11-29 12:40:00,39.9,21.1,31.29,SW,225,2.0,2.6,47,0.00,,,0.00,WUHU216HW,2013-11-29 17:40:00,
2013-11-29 12:45:00,40.6,21.8,31.29,SW,225,0.6,2.4,47,0.00,,,0.00,WUHU216HW,2013-11-29 17:45:00,
2013-11-29 12:50:00,41.5,22.1,31.29,South,180,0.0,3.3,46,0.00,,,0.00,WUHU216HW,2013-11-29 17:50:00,
2013-11-29 12:55:00,42.4,23.0,31.29,South,180,0.0,3.3,46,0.00,,,0.00,WUHU216HW,2013-11-29 17:55:00,
2013-11-29 13:00:00,43.1,23.1,31.29,South,180,0.0,2.0,45,0.00,,,0.00,WUHU216HW,2013-11-29 18:00:00,
2013-11-29 13:05:00,43.7,23.0,31.29,SW,225,0.0,2.0,44,0.00,,,0.00,WUHU216HW,2013-11-29 18:05:00,
2013-11-29 13:10:00,44.6,23.3,31.29,WSW,248,2.6,2.6,43,0.00,,,0.00,WUHU216HW,2013-11-29 18:10:00,
2013-11-29 13:15:00,45.1,23.3,31.29,South,180,0.0,3.3,42,0.00,,,0.00,WUHU216HW,2013-11-29 18:15:00,
2013-11-29 13:20:00,45.3,22.9,31.29,SSW,203,2.9,3.3,41,0.00,,,0.00,WUHU216HW,2013-11-29 18:20:00,
2013-11-29 13:25:00,45.5,22.5,31.28,SSW,203,0.8,3.3,40,0.00,,,0.00,WUHU216HW,2013-11-29 18:25:00,
2013-11-29 13:30:00,45.5,21.8,31.29,SSW,203,0.0,3.1,39,0.00,,,0.00,WUHU216HW,2013-11-29 18:30:00,
2013-11-29 13:35:00,46.2,22.5,31.29,SSW,203,0.0,3.1,39,0.00,,,0.00,WUHU216HW,2013-11-29 18:35:00,
2013-11-29 13:40:00,46.9,23.1,31.29,SSW,203,0.0,2.6,39,0.00,,,0.00,WUHU216HW,2013-11-29 18:40:00,
2013-11-29 13:45:00,47.3,23.0,31.28,NW,315,1.1,2.4,38,0.00,,,0.00,WUHU216HW,2013-11-29 18:45:00,
2013-11-29 13:50:00,47.6,23.1,31.28,SW,225,2.4,2.4,38,0.00,,,0.00,WUHU216HW,2013-11-29 18:50:00,
2013-11-29 13:55:00,48.2,22.9,31.27,West,270,0.0,2.4,37,0.00,,,0.00,WUHU216HW,2013-11-29 18:55:00,
2013-11-29 14:00:00,48.3,23.1,31.28,SE,135,0.0,2.6,37,0.00,,,0.00,WUHU216HW,2013-11-29 19:00:00,
2013-11-29 14:05:00,49.1,24.4,31.28,South,180,0.0,3.1,38,0.00,,,0.00,WUHU216HW,2013-11-29 19:05:00,
2013-11-29 14:10:00,49.6,24.2,31.28,SSW,203,0.0,3.1,37,0.00,,,0.00,WUHU216HW,2013-11-29 19:10:00,
2013-11-29 14:15:00,49.6,23.5,31.28,ENE,68,0.0,2.0,36,0.00,,,0.00,WUHU216HW,2013-11-29 19:15:00,
2013-11-29 14:20:00,50.3,24.8,31.27,SSW,203,0.0,2.0,37,0.00,,,0.00,WUHU216HW,2013-11-29 19:20:00,
2013-11-29 14:25:00,50.3,24.3,31.27,NNW,338,2.2,2.2,36,0.00,,,0.00,WUHU216HW,2013-11-29 19:25:00,
2013-11-29 14:30:00,50.5,24.3,31.27,North,0,0.0,2.2,36,0.00,,,0.00,WUHU216HW,2013-11-29 19:30:00,
2013-11-29 14:35:00,50.5,24.3,31.27,South,180,0.0,0.0,36,0.00,,,0.00,WUHU216HW,2013-11-29 19:35:00,
2013-11-29 14:40:00,50.7,23.8,31.27,South,180,0.0,0.0,36,0.00,,,0.00,WUHU216HW,2013-11-29 19:40:00,
2013-11-29 14:45:00,51.2,24.3,31.27,South,180,0.0,0.0,35,0.00,,,0.00,WUHU216HW,2013-11-29 19:45:00,
2013-11-29 14:50:00,51.6,24.6,31.27,SE,135,0.0,0.0,35,0.00,,,0.00,WUHU216HW,2013-11-29 19:50:00,
2013-11-29 14:55:00,52.1,24.4,31.26,West,270,0.0,1.5,35,0.00,,,0.00,WUHU216HW,2013-11-29 19:55:00,
2013-11-29 15:00:00,51.8,22.7,31.26,WNW,293,0.0,2.6,32,0.00,,,0.00,WUHU216HW,2013-11-29 20:00:00,
2013-11-29 15:05:00,51.2,20.8,31.26,WSW,248,0.0,2.6,30,0.00,,,0.00,WUHU216HW,2013-11-29 20:05:00,
2013-11-29 15:10:00,50.9,20.5,31.27,SW,225,0.0,1.7,30,0.00,,,0.00,WUHU216HW,2013-11-29 20:10:00,
2013-11-29 15:15:00,50.7,20.4,31.27,WSW,248,0.0,1.7,30,0.00,,,0.00,WUHU216HW,2013-11-29 20:15:00,
2013-11-29 15:20:00,50.7,20.4,31.27,West,270,0.0,1.7,31,0.00,,,0.00,WUHU216HW,2013-11-29 20:20:00,
2013-11-29 15:25:00,50.7,21.0,31.27,WNW,293,0.0,2.4,31,0.00,,,0.00,WUHU216HW,2013-11-29 20:25:00,
2013-11-29 15:30:00,50.7,20.4,31.27,WNW,293,0.0,2.4,30,0.00,,,0.00,WUHU216HW,2013-11-29 20:30:00,
2013-11-29 15:35:00,50.5,20.9,31.27,WNW,293,0.8,0.8,31,0.00,,,0.00,WUHU216HW,2013-11-29 20:35:00,
2013-11-29 15:40:00,50.1,19.9,31.27,WNW,293,0.0,0.8,30,0.00,,,0.00,WUHU216HW,2013-11-29 20:40:00,
2013-11-29 15:45:00,49.4,19.1,31.27,NW,315,0.8,0.8,30,0.00,,,0.00,WUHU216HW,2013-11-29 20:45:00,
2013-11-29 15:50:00,48.3,7.9,31.27,SW,225,0.0,0.8,19,0.00,,,0.00,WUHU216HW,2013-11-29 20:50:00,
2013-11-29 15:55:00,47.3,7.0,31.27,SW,225,0.0,0.0,19,0.00,,,0.00,WUHU216HW,2013-11-29 20:55:00,
2013-11-29 16:00:00,45.6,5.6,31.27,SW,225,0.0,0.0,19,0.00,,,0.00,WUHU216HW,2013-11-29 21:00:00,
2013-11-29 16:05:00,44.2,4.5,31.28,SW,225,0.0,0.0,19,0.00,,,0.00,WUHU216HW,2013-11-29 21:05:00,
2013-11-29 16:10:00,42.9,3.4,31.28,SW,225,0.0,0.0,19,0.00,,,0.00,WUHU216HW,2013-11-29 21:10:00,
2013-11-29 16:15:00,42.0,7.3,31.28,SW,225,0.0,0.0,19,0.00,,,0.00,WUHU216HW,2013-11-29 21:15:00,
2013-11-29 16:20:00,41.1,6.7,31.28,SW,225,0.0,0.0,24,0.00,,,0.00,WUHU216HW,2013-11-29 21:20:00,
2013-11-29 16:25:00,40.6,10.6,31.28,SW,225,0.0,0.0,29,0.00,,,0.00,WUHU216HW,2013-11-29 21:25:00,
2013-11-29 16:30:00,39.9,11.6,31.28,SW,225,0.0,0.0,31,0.00,,,0.00,WUHU216HW,2013-11-29 21:30:00,
2013-11-29 16:35:00,39.3,11.8,31.28,SW,225,0.0,0.0,32,0.00,,,0.00,WUHU216HW,2013-11-29 21:35:00,
2013-11-29 16:40:00,38.8,12.6,31.28,SW,225,0.0,0.0,34,0.00,,,0.00,WUHU216HW,2013-11-29 21:40:00,
2013-11-29 16:45:00,38.3,12.8,31.28,SW,225,0.0,0.0,35,0.00,,,0.00,WUHU216HW,2013-11-29 21:45:00,
2013-11-29 16:50:00,37.9,12.5,31.28,SW,225,0.0,0.0,35,0.00,,,0.00,WUHU216HW,2013-11-29 21:50:00,
2013-11-29 16:55:00,37.5,12.8,31.28,SW,225,0.0,0.0,36,0.00,,,0.00,WUHU216HW,2013-11-29 21:55:00,
2013-11-29 17:00:00,37.0,12.9,31.28,SW,225,0.0,0.0,37,0.00,,,0.00,WUHU216HW,2013-11-29 22:00:00,
2013-11-29 17:05:00,36.5,12.5,31.28,SW,225,0.0,0.0,37,0.00,,,0.00,WUHU216HW,2013-11-29 22:05:00,
2013-11-29 17:10:00,36.1,12.8,31.29,SW,225,0.0,0.0,38,0.00,,,0.00,WUHU216HW,2013-11-29 22:10:00,
2013-11-29 17:15:00,35.7,12.5,31.29,SW,225,0.0,0.0,38,0.00,,,0.00,WUHU216HW,2013-11-29 22:15:00,
2013-11-29 17:20:00,35.4,12.8,31.29,SW,225,0.0,0.0,39,0.00,,,0.00,WUHU216HW,2013-11-29 22:20:00,
2013-11-29 17:25:00,35.2,13.3,31.29,SW,225,0.0,0.0,40,0.00,,,0.00,WUHU216HW,2013-11-29 22:25:00,
2013-11-29 17:30:00,34.7,12.8,31.29,SW,225,0.0,0.0,40,0.00,,,0.00,WUHU216HW,2013-11-29 22:30:00,
2013-11-29 17:35:00,34.5,12.6,31.29,SW,225,0.0,0.0,40,0.00,,,0.00,WUHU216HW,2013-11-29 22:35:00,
2013-11-29 17:40:00,34.1,12.8,31.29,SW,225,0.0,0.0,41,0.00,,,0.00,WUHU216HW,2013-11-29 22:40:00,
2013-11-29 17:45:00,33.8,12.6,31.29,SW,225,0.0,0.0,41,0.00,,,0.00,WUHU216HW,2013-11-29 22:45:00,
2013-11-29 17:50:00,33.6,12.3,31.29,SW,225,0.0,0.0,41,0.00,,,0.00,WUHU216HW,2013-11-29 22:50:00,
2013-11-29 17:55:00,33.2,12.5,31.30,SW,225,0.0,0.0,42,0.00,,,0.00,WUHU216HW,2013-11-29 22:55:00,
2013-11-29 18:00:00,33.0,12.3,31.29,SW,225,0.0,0.0,42,0.00,,,0.00,WUHU216HW,2013-11-29 23:00:00,
2013-11-29 18:05:00,32.9,12.7,31.29,SW,225,0.0,0.0,43,0.00,,,0.00,WUHU216HW,2013-11-29 23:05:00,
2013-11-29 18:10:00,32.7,12.5,31.30,SW,225,0.0,0.0,43,0.00,,,0.00,WUHU216HW,2013-11-29 23:10:00,
2013-11-29 18:15:00,32.5,12.3,31.30,SW,225,0.0,0.0,43,0.00,,,0.00,WUHU216HW,2013-11-29 23:15:00,
2013-11-29 18:20:00,32.3,12.7,31.30,SW,225,0.0,0.0,44,0.00,,,0.00,WUHU216HW,2013-11-29 23:20:00,
2013-11-29 18:25:00,32.1,12.5,31.30,SW,225,0.0,0.0,44,0.00,,,0.00,WUHU216HW,2013-11-29 23:25:00,
2013-11-29 18:30:00,32.1,13.0,31.30,SW,225,0.0,0.0,45,0.00,,,0.00,WUHU216HW,2013-11-29 23:30:00,
2013-11-29 18:35:00,32.0,12.9,31.30,SW,225,0.0,0.0,45,0.00,,,0.00,WUHU216HW,2013-11-29 23:35:00,
2013-11-29 18:40:00,31.6,12.5,31.30,SW,225,0.0,0.0,45,0.00,,,0.00,WUHU216HW,2013-11-29 23:40:00,
2013-11-29 18:45:00,31.6,12.5,31.30,SW,225,0.0,0.0,45,0.00,,,0.00,WUHU216HW,2013-11-29 23:45:00,
2013-11-29 18:50:00,31.4,12.9,31.30,SW,225,0.0,0.0,46,0.00,,,0.00,WUHU216HW,2013-11-29 23:50:00,
2013-11-29 18:55:00,31.2,12.7,31.29,SW,225,0.0,0.0,46,0.00,,,0.00,WUHU216HW,2013-11-29 23:55:00,
2013-11-29 19:00:00,31.1,12.6,31.30,SW,225,0.0,0.0,46,0.00,,,0.00,WUHU216HW,2013-11-30 00:00:00,
2013-11-29 19:05:00,30.9,12.2,31.29,SW,225,0.0,0.0,46,0.00,,,0.00,WUHU216HW,2013-11-30 00:05:00,
2013-11-29 19:10:00,30.9,12.9,31.29,SW,225,0.0,0.0,47,0.00,,,0.00,WUHU216HW,2013-11-30 00:10:00,
2013-11-29 19:15:00,30.7,12.7,31.29,SW,225,0.0,0.0,47,0.00,,,0.00,WUHU216HW,2013-11-30 00:15:00,
2013-11-29 19:20:00,30.7,12.6,31.29,SW,225,0.0,0.0,47,0.00,,,0.00,WUHU216HW,2013-11-30 00:20:00,
2013-11-29 19:25:00,30.5,12.6,31.29,ENE,68,0.0,0.0,47,0.00,,,0.00,WUHU216HW,2013-11-30 00:25:00,
2013-11-29 19:30:00,30.5,13.1,31.29,ENE,68,0.0,0.0,48,0.00,,,0.00,WUHU216HW,2013-11-30 00:30:00,
2013-11-29 19:35:00,30.3,12.9,31.29,ENE,68,0.0,0.0,48,0.00,,,0.00,WUHU216HW,2013-11-30 00:35:00,
2013-11-29 19:40:00,30.3,12.9,31.29,ENE,68,0.0,0.0,48,0.00,,,0.00,WUHU216HW,2013-11-30 00:40:00,
2013-11-29 19:45:00,30.3,12.9,31.30,ENE,68,0.0,0.0,48,0.00,,,0.00,WUHU216HW,2013-11-30 00:45:00,
2013-11-29 19:50:00,30.2,13.2,31.30,ENE,68,0.0,0.0,49,0.00,,,0.00,WUHU216HW,2013-11-30 00:50:00,
2013-11-29 19:55:00,30.0,13.1,31.29,ENE,68,0.0,0.0,49,0.00,,,0.00,WUHU216HW,2013-11-30 00:55:00,
2013-11-29 20:00:00,30.0,13.1,31.29,ENE,68,0.0,0.0,49,0.00,,,0.00,WUHU216HW,2013-11-30 01:00:00,
2013-11-29 20:05:00,29.8,12.9,31.29,ENE,68,0.0,0.0,49,0.00,,,0.00,WUHU216HW,2013-11-30 01:05:00,
2013-11-29 20:10:00,30.0,13.6,31.29,ENE,68,0.0,0.0,50,0.00,,,0.00,WUHU216HW,2013-11-30 01:10:00,
2013-11-29 20:15:00,29.8,13.4,31.29,ENE,68,0.0,0.0,50,0.00,,,0.00,WUHU216HW,2013-11-30 01:15:00,
2013-11-29 20:20:00,29.8,13.4,31.29,ENE,68,0.0,0.0,50,0.00,,,0.00,WUHU216HW,2013-11-30 01:20:00,
2013-11-29 20:25:00,29.8,13.4,31.28,ENE,68,0.0,0.0,50,0.00,,,0.00,WUHU216HW,2013-11-30 01:25:00,
2013-11-29 20:30:00,29.6,13.3,31.28,ENE,68,0.0,0.0,50,0.00,,,0.00,WUHU216HW,2013-11-30 01:30:00,
2013-11-29 20:35:00,29.6,13.3,31.28,ENE,68,0.0,0.0,50,0.00,,,0.00,WUHU216HW,2013-11-30 01:35:00,
2013-11-29 20:40:00,29.4,13.1,31.28,ENE,68,0.0,0.0,50,0.00,,,0.00,WUHU216HW,2013-11-30 01:40:00,
2013-11-29 20:45:00,29.4,13.1,31.28,ENE,68,0.0,0.0,50,0.00,,,0.00,WUHU216HW,2013-11-30 01:45:00,
2013-11-29 20:50:00,29.4,13.5,31.28,ENE,68,0.0,0.0,51,0.00,,,0.00,WUHU216HW,2013-11-30 01:50:00,
2013-11-29 20:55:00,29.3,13.4,31.28,ENE,68,0.0,0.0,51,0.00,,,0.00,WUHU216HW,2013-11-30 01:55:00,
2013-11-29 21:00:00,29.1,13.2,31.28,ENE,68,0.0,0.0,51,0.00,,,0.00,WUHU216HW,2013-11-30 02:00:00,
2013-11-29 21:05:00,29.1,13.2,31.28,ENE,68,0.0,0.0,51,0.00,,,0.00,WUHU216HW,2013-11-30 02:05:00,
2013-11-29 21:10:00,29.1,13.1,31.28,ENE,68,0.0,0.0,51,0.00,,,0.00,WUHU216HW,2013-11-30 02:10:00,
2013-11-29 21:15:00,28.9,13.1,31.28,ENE,68,0.0,0.0,51,0.00,,,0.00,WUHU216HW,2013-11-30 02:15:00,
2013-11-29 21:20:00,28.9,13.1,31.28,ENE,68,0.0,0.0,51,0.00,,,0.00,WUHU216HW,2013-11-30 02:20:00,
2013-11-29 21:25:00,28.7,13.3,31.28,ENE,68,0.0,0.0,52,0.00,,,0.00,WUHU216HW,2013-11-30 02:25:00,
2013-11-29 21:30:00,28.7,13.3,31.28,ENE,68,0.0,0.0,52,0.00,,,0.00,WUHU216HW,2013-11-30 02:30:00,
2013-11-29 21:35:00,28.5,13.1,31.28,ENE,68,0.0,0.0,52,0.00,,,0.00,WUHU216HW,2013-11-30 02:35:00,
2013-11-29 21:40:00,28.5,13.1,31.28,ENE,68,0.0,0.0,52,0.00,,,0.00,WUHU216HW,2013-11-30 02:40:00,
2013-11-29 21:45:00,28.4,13.0,31.28,ENE,68,0.0,0.0,52,0.00,,,0.00,WUHU216HW,2013-11-30 02:45:00,
2013-11-29 21:50:00,28.4,12.8,31.28,ENE,68,0.0,0.0,52,0.00,,,0.00,WUHU216HW,2013-11-30 02:50:00,
2013-11-29 21:55:00,28.4,13.0,31.28,ENE,68,0.0,0.0,52,0.00,,,0.00,WUHU216HW,2013-11-30 02:55:00,
2013-11-29 22:00:00,28.2,12.8,31.29,ENE,68,0.0,0.0,52,0.00,,,0.00,WUHU216HW,2013-11-30 03:00:00,
2013-11-29 22:05:00,28.0,13.0,31.29,ENE,68,0.0,0.0,53,0.00,,,0.00,WUHU216HW,2013-11-30 03:05:00,
2013-11-29 22:10:00,28.0,13.0,31.29,ENE,68,0.0,0.0,53,0.00,,,0.00,WUHU216HW,2013-11-30 03:10:00,
2013-11-29 22:14:00,28.0,13.0,31.29,ENE,68,0.0,0.0,53,0.00,,,0.00,WUHU216HW,2013-11-30 03:14:00,
2013-11-29 22:19:00,28.0,13.0,31.29,ENE,68,0.0,0.0,53,0.00,,,0.00,WUHU216HW,2013-11-30 03:19:00,
2013-11-29 22:24:00,28.0,12.9,31.29,ENE,68,0.0,0.0,53,0.00,,,0.00,WUHU216HW,2013-11-30 03:24:00,
2013-11-29 22:29:00,27.8,12.9,31.29,ENE,68,0.0,0.0,53,0.00,,,0.00,WUHU216HW,2013-11-30 03:29:00,
2013-11-29 22:34:00,27.8,13.3,31.28,ENE,68,0.0,0.0,54,0.00,,,0.00,WUHU216HW,2013-11-30 03:34:00,
2013-11-29 22:39:00,27.8,13.3,31.28,ENE,68,0.0,0.0,54,0.00,,,0.00,WUHU216HW,2013-11-30 03:39:00,
2013-11-29 22:44:00,27.6,13.1,31.28,ENE,68,0.0,0.0,54,0.00,,,0.00,WUHU216HW,2013-11-30 03:44:00,
2013-11-29 22:49:00,27.6,13.1,31.28,ENE,68,0.0,0.0,54,0.00,,,0.00,WUHU216HW,2013-11-30 03:49:00,
2013-11-29 22:54:00,27.6,12.9,31.28,ENE,68,0.0,0.0,54,0.00,,,0.00,WUHU216HW,2013-11-30 03:54:00,
2013-11-29 22:59:00,27.5,12.9,31.27,ENE,68,0.0,0.0,54,0.00,,,0.00,WUHU216HW,2013-11-30 03:59:00,
2013-11-29 23:04:00,27.5,12.9,31.27,ENE,68,0.0,0.0,54,0.00,,,0.00,WUHU216HW,2013-11-30 04:04:00,
2013-11-29 23:09:00,27.3,13.1,31.27,ENE,68,0.0,0.0,55,0.00,,,0.00,WUHU216HW,2013-11-30 04:09:00,
2013-11-29 23:14:00,27.3,13.1,31.27,ENE,68,0.0,0.0,55,0.00,,,0.00,WUHU216HW,2013-11-30 04:14:00,
2013-11-29 23:19:00,27.3,13.1,31.27,ENE,68,0.0,0.0,55,0.00,,,0.00,WUHU216HW,2013-11-30 04:19:00,
2013-11-29 23:24:00,27.1,13.0,31.26,ENE,68,0.8,0.8,55,0.00,,,0.00,WUHU216HW,2013-11-30 04:24:00,
2013-11-29 23:29:00,26.9,12.8,31.26,ENE,68,0.0,0.8,55,0.00,,,0.00,WUHU216HW,2013-11-30 04:29:00,
2013-11-29 23:34:00,27.1,13.0,31.26,ENE,68,0.0,0.4,55,0.00,,,0.00,WUHU216HW,2013-11-30 04:34:00,
2013-11-29 23:39:00,26.9,12.8,31.26,ENE,68,0.0,0.8,55,0.00,,,0.00,WUHU216HW,2013-11-30 04:39:00,
2013-11-29 23:44:00,26.7,12.6,31.26,ENE,68,1.3,1.3,55,0.00,,,0.00,WUHU216HW,2013-11-30 04:44:00,
2013-11-29 23:49:00,26.7,12.6,31.26,NE,45,0.0,1.3,55,0.00,,,0.00,WUHU216HW,2013-11-30 04:49:00,
2013-11-29 23:54:00,26.6,12.4,31.26,ENE,68,2.2,2.2,55,0.00,,,0.00,WUHU216HW,2013-11-30 04:54:00,
2013-11-29 23:59:00,26.6,12.4,31.25,ENE,68,0.0,2.2,55,0.00,,,0.00,WUHU216HW,2013-11-30 04:59:00,